Location: Newark
(0.5300°S, 127.4800°E)
Time: 13:00:02
(UTC+00:00)

Explorer 7 - Visible Passes

Search period start: 22 September 2019 00:00
Search period end: 02 October 2019 00:00
Orbit: 485 x 680 km, 50.3° (Epoch: 22 September)

Date Brightness Start Highest point End Pass type
(mag) Time Alt. Az. Time Alt. Az. Time Alt. Az.
22 Sep 9.3 11:14:19 10° W 11:16:56 17° NW 11:18:14 15° NNW visible
24 Sep 7.1 09:42:45 10° SW 09:46:33 64° NW 09:50:29 10° NNE visible
24 Sep 10.1 20:07:11 10° NNE 20:09:16 13° NE 20:11:19 10° ENE visible
25 Sep 8.8 09:48:15 10° WSW 09:51:32 27° NW 09:54:57 10° N visible
25 Sep 9.4 20:10:23 10° N 20:14:19 24° NE 20:18:11 10° ESE visible
26 Sep 9.7 09:54:48 10° W 09:56:35 13° NW 09:58:24 10° NNW visible
26 Sep 8.1 20:14:37 10° NNW 20:19:20 48° NE 20:23:55 10° SE visible
27 Sep 7.1 20:19:42 12° NW 20:24:18 84° SW 20:29:04 10° SE visible
28 Sep 9.9 18:49:36 15° ENE 18:49:36 15° ENE 18:51:44 10° E visible
28 Sep 7.7 20:26:01 18° WNW 20:29:16 41° SW 20:33:45 10° SSE visible
29 Sep 9.5 18:55:47 22° E 18:55:47 22° E 18:58:02 10° ESE visible
29 Sep 8.6 20:32:11 17° W 20:34:15 21° SW 20:37:52 10° S visible
30 Sep 9.3 19:01:47 22° SE 19:01:47 22° SE 19:03:33 10° SE visible
30 Sep 9.2 20:38:11 10° WSW 20:39:16 11° SW 20:40:27 10° SW visible
01 Oct 9.6 19:07:35 16° SSE 19:07:35 16° SSE 19:08:33 10° SSE visible
